| time (UTC) | temp F | wind direction | speed knots | gust knots | rain 1hr in | rain 24hr in | rain mn in | humidity % | barometer mb |
| 20260831103101 | 55 | 9 | 3.5 | 7.0 | 0.00 | 0.00 | 0.00 | 87 | 1013.2 |
| 20260831101605 | 55 | 350 | 3.5 | 7.8 | 0.00 | 0.00 | 0.00 | 87 | 1013.1 |
| 20260831100104 | 55 | 352 | 3.5 | 7.8 | 0.00 | 0.00 | 0.00 | 87 | 1013.2 |
| 20260831094602 | 56 | 346 | 2.6 | 7.0 | 0.00 | 0.00 | 0.00 | 87 | 1013.4 |
| 20260831093103 | 55 | 345 | 3.5 | 5.2 | 0.00 | 0.00 | 0.00 | 86 | 1013.6 |
| 20260831091557 | 56 | 345 | 3.5 | 7.0 | 0.00 | 0.00 | 0.00 | 86 | 1013.7 |
| 20260831084606 | 56 | 343 | 3.5 | 7.0 | 0.00 | 0.00 | 0.00 | 85 | 1013.9 |
| 20260831083105 | 57 | 344 | 3.5 | 6.1 | 0.00 | 0.00 | 0.00 | 85 | 1014.1 |
| 20260831081634 | 57 | 352 | 3.5 | 7.0 | 0.00 | 0.00 | 0.00 | 84 | 1014.2 |
| 20260831074607 | 57 | 350 | 2.6 | 5.2 | 0.00 | 0.00 | 0.00 | 84 | 1014.5 |
| 20260831073210 | 57 | 352 | 2.6 | 7.0 | 0.00 | 0.00 | 0.00 | 83 | 1014.6 |
| 20260831071601 | 57 | 9 | 3.5 | 7.0 | 0.00 | 0.00 | 0.00 | 82 | 1014.7 |
| 20260831064607 | 58 | 350 | 3.5 | 7.0 | 0.00 | 0.00 | 0.00 | 81 | 1015.1 |
| 20260831063056 | 58 | 349 | 4.3 | 7.0 | 0.00 | 0.00 | 0.00 | 81 | 1015.1 |
| 20260831061604 | 59 | 351 | 3.5 | 9.6 | 0.00 | 0.00 | 0.00 | 80 | 1015.3 |
| 20260831060115 | 59 | 360 | 4.3 | 8.7 | 0.00 | 0.00 | 0.00 | 79 | 1015.4 |
| 20260831054559 | 59 | 9 | 3.5 | 8.7 | 0.00 | 0.00 | 0.00 | 78 | 1015.5 |
| 20260831053104 | 60 | 352 | 3.5 | 9.6 | 0.00 | 0.00 | 0.00 | 77 | 1015.7 |
| 20260831051559 | 60 | 352 | 3.5 | 8.7 | 0.00 | 0.00 | 0.00 | 76 | 1015.9 |
| 20260831050137 | 60 | 341 | 3.5 | 8.7 | 0.00 | 0.00 | 0.00 | 75 | 1016.1 |
| 20260831044604 | 60 | 14 | 4.3 | 10.4 | 0.00 | 0.00 | 0.00 | 75 | 1016.2 |
| 20260831043100 | 60 | 329 | 2.6 | 7.8 | 0.00 | 0.00 | 0.00 | 74 | 1016.3 |
| 20260831041555 | 61 | 9 | 3.5 | 7.0 | 0.00 | 0.00 | 0.00 | 73 | 1016.3 |
| 20260831034600 | 61 | 340 | 2.6 | 7.8 | 0.00 | 0.00 | 0.00 | 70 | 1016.4 |
| 20260831033059 | 62 | 339 | 2.6 | 5.2 | 0.00 | 0.00 | 0.00 | 70 | 1016.4 |
| 20260831031601 | 62 | 5 | 2.6 | 7.0 | 0.00 | 0.00 | 0.00 | 68 | 1016.5 |
| 20260831030106 | 62 | 322 | 1.7 | 5.2 | 0.00 | 0.00 | 0.00 | 67 | 1016.5 |
| 20260831024602 | 63 | 350 | 3.5 | 9.6 | 0.00 | 0.00 | 0.00 | 66 | 1016.5 |
| 20260831023056 | 63 | 54 | 2.6 | 7.8 | 0.00 | 0.00 | 0.00 | 65 | 1016.6 |
| 20260831021604 | 63 | 352 | 2.6 | 8.7 | 0.00 | 0.00 | 0.00 | 64 | 1016.6 |
| 20260831020055 | 64 | 34 | 2.6 | 4.3 | 0.00 | 0.00 | 0.00 | 63 | 1016.7 |
| 20260831014604 | 64 | 348 | 1.7 | 7.0 | 0.00 | 0.00 | 0.00 | 62 | 1016.7 |
| 20260831013100 | 65 | 340 | 5.2 | 10.4 | 0.00 | 0.00 | 0.00 | 60 | 1016.9 |
| 20260831011604 | 65 | 341 | 3.5 | 9.6 | 0.00 | 0.00 | 0.00 | 59 | 1017.0 |
| 20260831010104 | 65 | 343 | 2.6 | 7.0 | 0.00 | 0.00 | 0.00 | 58 | 1017.2 |
| 20260831004616 | 66 | 352 | 2.6 | 10.4 | 0.00 | 0.00 | 0.00 | 58 | 1017.5 |
| 20260831003105 | 66 | 339 | 2.6 | 10.4 | 0.00 | 0.00 | 0.00 | 56 | 1017.4 |
| 20260831001604 | 67 | 36 | 3.5 | 8.7 | 0.00 | 0.00 | 0.00 | 56 | 1017.6 |
| 20260831000104 | 67 | 344 | 4.3 | 9.6 | 0.00 | 0.00 | 0.00 | 54 | 1017.7 |
| 20260830234601 | 68 | 84 | 3.5 | 7.8 | 0.00 | 0.00 | 0.00 | 54 | 1017.8 |
| 20260830233108 | 68 | 21 | 1.7 | 8.7 | 0.00 | 0.00 | 0.00 | 52 | 1017.8 |
| 20260830231603 | 68 | 22 | 3.5 | 10.4 | 0.00 | 0.00 | 0.00 | 54 | 1018.0 |
| 20260830230100 | 68 | 342 | 5.2 | 11.3 | 0.00 | 0.00 | 0.00 | 54 | 1018.1 |
| 20260830224553 | 68 | 22 | 5.2 | 11.3 | 0.00 | 0.00 | 0.00 | 55 | 1018.3 |
| 20260830223102 | 67 | 39 | 2.6 | 8.7 | 0.00 | 0.00 | 0.00 | 54 | 1018.7 |
| 20260830221603 | 68 | 344 | 3.5 | 8.7 | 0.00 | 0.00 | 0.00 | 54 | 1018.9 |
| 20260830220105 | 67 | 334 | 2.6 | 8.7 | 0.00 | 0.00 | 0.00 | 54 | 1019.3 |
| 20260830214604 | 67 | 360 | 3.5 | 7.0 | 0.00 | 0.00 | 0.00 | 55 | 1019.3 |
| 20260830213056 | 67 | 333 | 3.5 | 8.7 | 0.00 | 0.00 | 0.00 | 58 | 1019.3 |
| 20260830211555 | 66 | 352 | 1.7 | 7.0 | 0.00 | 0.00 | 0.00 | 58 | 1019.3 |
| 20260830210107 | 65 | 350 | 4.3 | 8.7 | 0.00 | 0.00 | 0.00 | 59 | 1019.5 |
| 20260830204618 | 65 | 61 | 4.3 | 8.7 | 0.00 | 0.00 | 0.00 | 58 | 1019.6 |
| 20260830203059 | 65 | 352 | 4.3 | 7.8 | 0.00 | 0.00 | 0.00 | 60 | 1020.0 |
| 20260830201630 | 64 | 53 | 3.5 | 9.6 | 0.00 | 0.00 | 0.00 | 59 | 1020.1 |
| 20260830200104 | 63 | 342 | 3.5 | 8.7 | 0.00 | 0.00 | 0.00 | 60 | 1020.3 |
| 20260830194602 | 63 | 336 | 2.6 | 7.8 | 0.00 | 0.00 | 0.00 | 62 | 1020.3 |
| 20260830193105 | 62 | 67 | 2.6 | 5.2 | 0.00 | 0.00 | 0.00 | 66 | 1020.4 |
| 20260830191628 | 64 | 44 | 2.6 | 6.1 | 0.00 | 0.00 | 0.00 | 63 | 1020.5 |
| 20260830190113 | 63 | 345 | 1.7 | 7.8 | 0.00 | 0.00 | 0.00 | 60 | 1020.6 |
| 20260830184604 | 61 | 13 | 1.7 | 3.5 | 0.00 | 0.00 | 0.00 | 70 | 1020.8 |
| 20260830183056 | 60 | 310 | 0.9 | 4.3 | 0.00 | 0.00 | 0.00 | 67 | 1020.7 |
| 20260830181603 | 59 | 15 | 3.5 | 6.1 | 0.00 | 0.00 | 0.00 | 68 | 1020.8 |
| 20260830180108 | 60 | 57 | 2.6 | 7.8 | 0.00 | 0.00 | 0.00 | 67 | 1020.7 |
| 20260830174601 | 60 | 28 | 4.3 | 7.8 | 0.00 | 0.00 | 0.00 | 68 | 1020.8 |
| 20260830173109 | 59 | 52 | 1.7 | 4.3 | 0.00 | 0.00 | 0.00 | 71 | 1020.9 |
| 20260830171603 | 58 | 318 | 1.7 | 4.3 | 0.00 | 0.00 | 0.00 | 78 | 1020.8 |
| 20260830164603 | 59 | 40 | 1.7 | 4.3 | 0.00 | 0.00 | 0.00 | 75 | 1020.7 |
| 20260830163101 | 57 | 343 | 1.7 | 3.5 | 0.00 | 0.00 | 0.00 | 81 | 1020.7 |
| 20260830161612 | 57 | 352 | 1.7 | 3.5 | 0.00 | 0.00 | 0.00 | 81 | 1020.8 |
| 20260830160057 | 56 | 20 | 1.7 | 4.3 | 0.00 | 0.00 | 0.00 | 82 | 1020.9 |
| 20260830154609 | 56 | 17 | 1.7 | 3.5 | 0.00 | 0.00 | 0.00 | 84 | 1020.8 |
| 20260830153103 | 55 | 76 | 1.7 | 3.5 | 0.00 | 0.00 | 0.00 | 85 | 1020.9 |
| 20260830151603 | 54 | 30 | 1.7 | 3.5 | 0.00 | 0.00 | 0.00 | 86 | 1021.1 |
| 20260830150106 | 54 | 23 | 1.7 | 2.6 | 0.00 | 0.00 | 0.00 | 87 | 1020.9 |
| 20260830144609 | 52 | 32 | 0.9 | 1.7 | 0.00 | 0.00 | 0.00 | 89 | 1021.0 |
| 20260830143100 | 52 | 350 | 0.9 | 1.7 | 0.00 | 0.00 | 0.00 | 89 | 1021.0 |
| 20260830141602 | 52 | 340 | 0.0 | 1.7 | 0.00 | 0.00 | 0.00 | 88 | 1020.9 |
| 20260830140107 | 52 | 0 | 0.0 | 0.0 | 0.00 | 0.00 | 0.00 | 88 | 1020.8 |
| 20260830134559 | 52 | 0 | 0.0 | 1.7 | 0.00 | 0.02 | 0.00 | 89 | 1020.8 |
| 20260830133106 | 52 | 0 | 0.0 | 1.7 | 0.00 | 0.02 | 0.00 | 89 | 1020.7 |
| 20260830131603 | 52 | 0 | 0.0 | 0.0 | 0.00 | 0.02 | 0.00 | 90 | 1020.8 |
| 20260830130117 | 51 | 0 | 0.0 | 1.7 | 0.00 | 0.02 | 0.00 | 90 | 1020.7 |
| 20260830124558 | 51 | 0 | 0.0 | 1.7 | 0.00 | 0.03 | 0.00 | 89 | 1020.5 |
| 20260830123104 | 51 | 340 | 0.0 | 1.7 | 0.00 | 0.03 | 0.00 | 89 | 1020.5 |
| 20260830121605 | 51 | 0 | 0.0 | 1.7 | 0.00 | 0.03 | 0.00 | 89 | 1020.6 |
| 20260830120118 | 51 | 0 | 0.0 | 0.9 | 0.00 | 0.03 | 0.00 | 89 | 1020.5 |
| 20260830114604 | 51 | 0 | 0.0 | 1.7 | 0.00 | 0.03 | 0.00 | 89 | 1020.5 |
| 20260830113100 | 51 | 0 | 0.0 | 1.7 | 0.00 | 0.03 | 0.00 | 89 | 1020.5 |
| 20260830111559 | 51 | 0 | 0.0 | 1.7 | 0.00 | 0.03 | 0.00 | 89 | 1020.5 |
| 20260830104606 | 51 | 0 | 0.0 | 1.7 | 0.00 | 0.03 | 0.00 | 89 | 1020.5 |